When you browse on this site, cookies collect data to enhance your experience and personalize the content and advertising you see.
Visit our Privacy Policy to learn more. By continuing to use the site, you agree to this use of cookies and data.
  • In United Kingdom
  • List of Countries
  • For 7 days
  • Water Temperature
  • Weather Map
  • Weather Widgets
  • user-avatar
    Login

    Hourly Weather Comayagua

    Today, 13 December, Friday

    Time Temperature Precipitation Wind Pressure Humidity
    00:00 +22°C° 0 mm 1 mps 709 mmHg 97%
    01:00 +22°C° 0 mm 1 mps 708 mmHg 97%
    02:00 +21°C° 0 mm 1 mps 708 mmHg 97%
    03:00 +21°C° 0 mm 1 mps 708 mmHg 97%
    04:00 +21°C° 0 mm 1 mps 708 mmHg 96%
    05:00 +21°C° 0 mm 1 mps 708 mmHg 96%
    06:00 +21°C° 0 mm 1 mps 708 mmHg 95%
    07:00 +22°C° 0 mm 1 mps 709 mmHg 90%
    08:00 +23°C° 0 mm 1 mps 709 mmHg 85%
    09:00 +24°C° 0 mm 1 mps 710 mmHg 81%
    10:00 +26°C° 0 mm 2 mps 709 mmHg 72%
    11:00 +28°C° 0 mm 2 mps 709 mmHg 63%
    12:00 +30°C° 0 mm 2 mps 708 mmHg 54%
    13:00 +30°C° 0 mm 2 mps 708 mmHg 55%
    14:00 +30°C° 0 mm 2 mps 707 mmHg 56%
    15:00 +29°C° 0 mm 2 mps 707 mmHg 57%
    16:00 +27°C° 0.2 mm 2 mps 707 mmHg 67%
    17:00 +25°C° 0.2 mm 1 mps 707 mmHg 77%
    18:00 +23°C° 0.2 mm 1 mps 707 mmHg 86%
    19:00 +23°C° 0.2 mm 1 mps 707 mmHg 89%
    20:00 +22°C° 0.2 mm 1 mps 708 mmHg 93%
    21:00 +22°C° 0.2 mm 1 mps 709 mmHg 96%
    22:00 +21°C° 0 mm 1 mps 708 mmHg 96%
    23:00 +21°C° 0 mm 1 mps 708 mmHg 97%

    Tomorrow, 14 December, Saturday

    Time Temperature Precipitation Wind Pressure Humidity
    00:00 +21°C° 0 mm 1 mps 708 mmHg 98%
    01:00 +21°C° 0 mm 1 mps 708 mmHg 98%
    02:00 +21°C° 0 mm 1 mps 707 mmHg 98%
    03:00 +21°C° 0 mm 1 mps 707 mmHg 98%
    04:00 +21°C° 0 mm 1 mps 707 mmHg 97%
    05:00 +20°C° 0 mm 1 mps 707 mmHg 97%
    06:00 +20°C° 0 mm 1 mps 708 mmHg 97%
    07:00 +22°C° 0 mm 1 mps 708 mmHg 88%
    08:00 +24°C° 0 mm 1 mps 709 mmHg 79%
    09:00 +26°C° 0 mm 1 mps 710 mmHg 70%
    10:00 +27°C° 0 mm 2 mps 709 mmHg 65%
    11:00 +29°C° 0 mm 2 mps 709 mmHg 61%
    12:00 +30°C° 0 mm 2 mps 709 mmHg 56%
    13:00 +30°C° 0.1 mm 2 mps 708 mmHg 57%
    14:00 +29°C° 0.1 mm 2 mps 707 mmHg 59%
    15:00 +29°C° 0.1 mm 2 mps 707 mmHg 60%
    16:00 +27°C° 0.1 mm 2 mps 707 mmHg 69%
    17:00 +25°C° 0.1 mm 1 mps 707 mmHg 79%
    18:00 +23°C° 0.1 mm 1 mps 707 mmHg 88%
    19:00 +23°C° 0 mm 1 mps 708 mmHg 91%
    20:00 +22°C° 0 mm 1 mps 708 mmHg 94%
    21:00 +22°C° 0 mm 1 mps 709 mmHg 97%
    22:00 +22°C° 0 mm 1 mps 709 mmHg 98%
    23:00 +21°C° 0 mm 1 mps 708 mmHg 98%

    Day after tomorrow, 15 December, Sunday

    Time Temperature Precipitation Wind Pressure Humidity
    00:00 +21°C° 0 mm 1 mps 708 mmHg 98%
    01:00 +21°C° 0 mm 1 mps 708 mmHg 98%
    02:00 +22°C° 0 mm 1 mps 708 mmHg 97%
    03:00 +22°C° 0 mm 1 mps 708 mmHg 97%
    04:00 +22°C° 0 mm 1 mps 708 mmHg 97%
    05:00 +21°C° 0 mm 1 mps 709 mmHg 97%
    06:00 +21°C° 0 mm 1 mps 709 mmHg 97%
    07:00 +23°C° 0 mm 1 mps 710 mmHg 90%
    08:00 +24°C° 0 mm 1 mps 710 mmHg 83%
    09:00 +25°C° 0 mm 1 mps 711 mmHg 76%
    10:00 +27°C° 0 mm 1 mps 710 mmHg 65%
    11:00 +29°C° 0 mm 2 mps 710 mmHg 55%
    12:00 +31°C° 0 mm 2 mps 710 mmHg 44%
    13:00 +31°C° 0 mm 2 mps 709 mmHg 44%
    14:00 +31°C° 0 mm 2 mps 708 mmHg 44%
    15:00 +31°C° 0 mm 2 mps 708 mmHg 44%
    16:00 +29°C° 0 mm 1 mps 708 mmHg 54%
    17:00 +26°C° 0 mm 1 mps 708 mmHg 64%
    18:00 +24°C° 0 mm 1 mps 708 mmHg 74%
    19:00 +23°C° 0 mm 1 mps 708 mmHg 79%
    20:00 +22°C° 0 mm 1 mps 708 mmHg 84%
    21:00 +21°C° 0 mm 1 mps 709 mmHg 89%
    22:00 +21°C° 0 mm 1 mps 709 mmHg 90%
    23:00 +19°C° 0 mm 0 mps 708 mmHg 92%

    16 December, Monday

    Time Temperature Precipitation Wind Pressure Humidity
    00:00 +19°C° 0 mm 0 mps 708 mmHg 94%
    01:00 +18°C° 0 mm 0 mps 708 mmHg 94%
    02:00 +18°C° 0 mm 0 mps 708 mmHg 95%
    03:00 +18°C° 0 mm 0 mps 708 mmHg 95%
    04:00 +18°C° 0 mm 0 mps 708 mmHg 96%
    05:00 +18°C° 0 mm 0 mps 708 mmHg 96%
    06:00 +20°C° 0 mm 1 mps 708 mmHg 96%
    07:00 +22°C° 0 mm 1 mps 709 mmHg 85%
    08:00 +25°C° 0 mm 1 mps 710 mmHg 73%
    09:00 +27°C° 0 mm 1 mps 710 mmHg 62%
    10:00 +29°C° 0 mm 1 mps 710 mmHg 57%
    11:00 +31°C° 0 mm 1 mps 709 mmHg 51%
    12:00 +32°C° 0 mm 1 mps 709 mmHg 46%
    13:00 +32°C° 0 mm 1 mps 708 mmHg 47%
    14:00 +32°C° 0 mm 1 mps 708 mmHg 48%
    15:00 +31°C° 0 mm 1 mps 707 mmHg 49%
    16:00 +29°C° 0 mm 1 mps 707 mmHg 59%
    17:00 +27°C° 0 mm 1 mps 707 mmHg 68%
    18:00 +25°C° 0 mm 1 mps 707 mmHg 77%
    19:00 +24°C° 0 mm 1 mps 707 mmHg 81%
    20:00 +23°C° 0 mm 1 mps 708 mmHg 85%
    21:00 +21°C° 0 mm 0 mps 708 mmHg 89%
    22:00 +20°C° 0 mm 0 mps 708 mmHg 90%
    23:00 +20°C° 0 mm 0 mps 708 mmHg 92%

    17 December, Tuesday

    Time Temperature Precipitation Wind Pressure Humidity
    00:00 +20°C° 0 mm 0 mps 708 mmHg 93%
    01:00 +19°C° 0 mm 0 mps 707 mmHg 94%
    02:00 +19°C° 0 mm 0 mps 707 mmHg 94%
    03:00 +19°C° 0 mm 0 mps 707 mmHg 94%
    04:00 +19°C° 0 mm 0 mps 707 mmHg 95%
    05:00 +19°C° 0 mm 0 mps 707 mmHg 95%
    06:00 +19°C° 0 mm 0 mps 707 mmHg 95%
    07:00 +21°C° 0 mm 0 mps 708 mmHg 85%
    08:00 +26°C° 0 mm 1 mps 709 mmHg 74%
    09:00 +28°C° 0 mm 1 mps 709 mmHg 64%
    10:00 +30°C° 0 mm 1 mps 709 mmHg 58%
    11:00 +31°C° 0 mm 1 mps 708 mmHg 53%
    12:00 +32°C° 0 mm 2 mps 708 mmHg 48%
    13:00 +31°C° 0.7 mm 2 mps 707 mmHg 54%
    14:00 +31°C° 0.7 mm 2 mps 706 mmHg 59%
    15:00 +30°C° 0.7 mm 2 mps 706 mmHg 65%
    16:00 +28°C° 1.2 mm 2 mps 706 mmHg 74%
    17:00 +26°C° 1.2 mm 1 mps 706 mmHg 84%
    18:00 +24°C° 1.2 mm 1 mps 706 mmHg 93%
    19:00 +24°C° 0.5 mm 1 mps 707 mmHg 94%
    20:00 +23°C° 0.5 mm 1 mps 707 mmHg 94%
    21:00 +23°C° 0.5 mm 1 mps 708 mmHg 95%
    22:00 +23°C° 0.1 mm 1 mps 708 mmHg 96%
    23:00 +22°C° 0.1 mm 1 mps 708 mmHg 97%

    18 December, Wednesday

    Time Temperature Precipitation Wind Pressure Humidity
    00:00 +22°C° 0.1 mm 1 mps 708 mmHg 98%
    01:00 +22°C° 0.1 mm 1 mps 707 mmHg 98%
    02:00 +22°C° 0.1 mm 1 mps 707 mmHg 98%
    03:00 +22°C° 0.1 mm 1 mps 707 mmHg 98%
    04:00 +22°C° 0.1 mm 1 mps 707 mmHg 98%
    05:00 +22°C° 0.1 mm 1 mps 708 mmHg 98%
    06:00 +21°C° 0.1 mm 2 mps 708 mmHg 98%
    07:00 +23°C° 0.1 mm 2 mps 709 mmHg 95%
    08:00 +24°C° 0.1 mm 2 mps 709 mmHg 92%
    09:00 +25°C° 0.1 mm 2 mps 710 mmHg 89%
    10:00 +26°C° 0.3 mm 3 mps 709 mmHg 84%
    11:00 +27°C° 0.3 mm 3 mps 709 mmHg 79%
    12:00 +28°C° 0.3 mm 3 mps 709 mmHg 73%
    13:00 +28°C° 0.4 mm 3 mps 708 mmHg 75%
    14:00 +27°C° 0.4 mm 3 mps 707 mmHg 77%
    15:00 +27°C° 0.4 mm 3 mps 707 mmHg 79%
    16:00 +25°C° 0.2 mm 3 mps 707 mmHg 85%
    17:00 +24°C° 0.2 mm 2 mps 707 mmHg 90%
    18:00 +23°C° 0.2 mm 2 mps 708 mmHg 96%
    19:00 +23°C° 0 mm 2 mps 708 mmHg 97%
    20:00 +21°C° 0 mm 2 mps 709 mmHg 97%
    21:00 +21°C° 0 mm 2 mps 709 mmHg 98%
    22:00 +21°C° 0 mm 2 mps 709 mmHg 97%
    23:00 +21°C° 0 mm 2 mps 709 mmHg 97%
    Show more